STARLINK-1334 (45556 NORAD) Tracking and Keplerian Element Data

This shows tracking and keplerian element data for the satellite.

Feedback or suggestion? Click here.




ElementValue
Catalog45556
NameSTARLINK-1334
Epoch Orbit1375
Epoch Day197.16667824
Epoch Year2020
RAAN351.1666
Inclination52.9978
Eccentricity0.0001361
Argument of Perigee75.9541
Mean Anonmoly125.8532
Mean Motion15.34778526
Decay Rate-0.0116242
L11 45556U 20025AB 20197.16667824 -.01162420 00000-0 -37320-1 0 9997
L22 45556 52.9978 351.1666 0001361 75.9541 125.8532 15.34778526 13757

Live tracking and technical data element details for STARLINK-1334 (NORAD 45556). STARLINK-1334 can be tracked NOW for your location showing map with azimuth and elevation plus other details from your city location.

Track the satellite on the map from your city or location and see movement details for azimuth, elevation, latitude, longitude, range, height, and movement on the map or in text.







IsCatalogInMostPopularTable: catalog: 45556, numindb: 14
Update: records affected: 1



GetName: 45556 STARLINK-1334

Hit Count: updated at: Thu, 16 Jul 2020 02:32:09 GMT